Home   Weather   Seattle   Past weeks

Flag for USA Past Weather in Seattle, Washington, USA — Yesterday and Last 2 Weeks

Now
69 °F

Clear.


Feels Like: 69 °F
Forecast: 61 / 80 °F
Wind: 3 mph from North

Location: Seattle Boeing Field

Current Time: Jul 26, 2017 at 1:50:49 am

Latest Report: Jul 26, 2017 at 12:53 am


Visibility: 10 mi

Pressure: 30.01 "Hg

Humidity: 59%

Dew Point: 54 °F

Location of SeattleLocation

Past Weather in Seattle — Graph

°F

Seattle Temperature Yesterday

Maximum temperature yesterday: 84 °F (at 5:53 pm)
Minimum temperature yesterday: 61 °F (at 4:53 am)
Average temperature yesterday: 72 °F

High & Low Weather Summary for the Past Weeks

 TemperatureHumidityPressure
High85 °F (Jul 22, 4:53 pm)93% (Jul 21, 5:53 am)30.28 "Hg (Jul 21, 5:53 am)
Low55 °F (Jul 19, 5:53 am)28% (Jul 18, 3:53 pm)29.92 "Hg (Jul 24, 6:53 pm)
Average67 °F62%30.09 "Hg
* Reported Jul 10 11:53 pm — Jul 25 11:53 pm, Seattle. Weather by CustomWeather, © 2017

Note: Actual official high and low records may vary slightly from our data, if they occured in-between our weather recording intervals... More about our weather records

Advertising

Seattle Weather History for the Previous 24 Hours

Scroll right to see more
 ConditionsComfort  
Time TempWeatherWind HumidityBarometerVisibility
11:53 pm
Tue, Jul 25
70 °FClear.No wind64%30.01 "Hg10 mi
10:53 pm74 °FClear.No wind53%29.99 "Hg10 mi
9:53 pm75 °FClear.6 mph50%29.99 "Hg10 mi
8:53 pm76 °FClear.6 mph47%29.97 "Hg10 mi
7:53 pm80 °FSunny.6 mph38%29.96 "Hg10 mi
6:53 pm82 °FSunny.9 mph33%29.96 "Hg10 mi
5:53 pm84 °FSunny.10 mph31%29.97 "Hg10 mi
4:53 pm83 °FSunny.9 mph31%29.98 "Hg10 mi
3:53 pm82 °FSunny.9 mph37%29.99 "Hg10 mi
2:53 pm82 °FSunny.7 mph34%30.00 "Hg10 mi
1:53 pm81 °FSunny.8 mph38%30.01 "Hg10 mi
12:53 pm78 °FSunny.8 mph40%30.02 "Hg10 mi
11:53 am76 °FSunny.12 mph45%30.03 "Hg10 mi
10:53 am73 °FSunny.6 mph51%30.03 "Hg10 mi
9:53 am70 °FSunny.5 mph57%30.03 "Hg10 mi
8:53 am67 °FSunny.No wind63%30.03 "Hg10 mi
7:53 am64 °FSunny.3 mph70%30.03 "Hg10 mi
6:53 am61 °FSunny.No wind78%30.02 "Hg10 mi
5:53 am61 °FSunny.No wind75%30.02 "Hg10 mi
4:53 am61 °FClear.No wind75%30.00 "Hg10 mi
3:53 am62 °FClear.No wind75%29.99 "Hg10 mi
2:53 am64 °FClear.No wind68%29.98 "Hg10 mi
1:53 am66 °FClear.No wind65%29.98 "Hg10 mi
Weather by CustomWeather, © 2017

See weather overviewHow to use our weather pages